| time (UTC) | temp C | wind direction | speed KPH | gust KPH | rain 1hr cm | rain 24hr cm | rain mn cm | humidity % | barometer mb |
| 20260504081523 | 10 | 0.0 | 0.0 | 0.00 | 0.00 | 0.00 | 67 | 1006.5 | |
| 20260504050115 | 10 | 0.0 | 0.0 | 0.00 | 0.00 | 0.00 | 64 | 1009.1 | |
| 20260504044558 | 11 | 0.0 | 0.0 | 0.00 | 0.00 | 0.00 | 65 | 1009.1 | |
| 20260504043107 | 10 | 0.0 | 0.0 | 0.00 | 0.00 | 0.00 | 66 | 1009.2 | |
| 20260504041553 | 10 | 0.0 | 0.0 | 0.00 | 0.00 | 0.00 | 67 | 1009.3 | |
| 20260504040055 | 10 | 0.0 | 0.0 | 0.00 | 0.00 | 0.00 | 68 | 1009.4 | |
| 20260504034549 | 10 | 0.0 | 0.0 | 0.00 | 0.00 | 0.00 | 68 | 1009.7 | |
| 20260504033055 | 10 | 0.0 | 0.0 | 0.00 | 0.00 | 0.00 | 69 | 1009.8 | |
| 20260504031557 | 9 | 0.0 | 0.0 | 0.00 | 0.00 | 0.00 | 72 | 1010.0 | |
| 20260504030048 | 9 | 0.0 | 0.0 | 0.00 | 0.00 | 0.00 | 73 | 1010.1 | |
| 20260504024547 | 9 | 0.0 | 0.0 | 0.00 | 0.00 | 0.00 | 72 | 1010.4 | |
| 20260504023044 | 10 | 0.0 | 0.0 | 0.00 | 0.00 | 0.00 | 71 | 1010.5 | |
| 20260504021544 | 10 | 0.0 | 0.0 | 0.00 | 0.00 | 0.00 | 69 | 1010.5 | |
| 20260504020045 | 10 | 0.0 | 0.0 | 0.00 | 0.00 | 0.00 | 68 | 1010.6 | |
| 20260504014554 | 10 | 0.0 | 0.0 | 0.00 | 0.00 | 0.00 | 66 | 1010.6 | |
| 20260504013046 | 11 | 0.0 | 0.0 | 0.00 | 0.00 | 0.00 | 66 | 1010.6 | |
| 20260504011542 | 11 | 0.0 | 0.0 | 0.00 | 0.00 | 0.00 | 65 | 1010.6 | |
| 20260504010041 | 11 | 0.0 | 0.0 | 0.00 | 0.00 | 0.00 | 64 | 1010.8 | |
| 20260504004541 | 11 | 0.0 | 0.0 | 0.00 | 0.00 | 0.00 | 63 | 1010.8 | |
| 20260504003042 | 11 | 0.0 | 0.0 | 0.00 | 0.00 | 0.00 | 63 | 1010.8 | |
| 20260504001548 | 11 | 0.0 | 0.0 | 0.00 | 0.00 | 0.00 | 61 | 1011.1 | |
| 20260504000044 | 12 | 0.0 | 0.0 | 0.00 | 0.00 | 0.00 | 60 | 1011.0 | |
| 20260503234539 | 12 | 0.0 | 0.0 | 0.00 | 0.00 | 0.00 | 59 | 1011.0 | |
| 20260503233042 | 13 | 0.0 | 0.0 | 0.00 | 0.00 | 0.00 | 57 | 1010.9 | |
| 20260503231542 | 14 | 0.0 | 0.0 | 0.00 | 0.00 | 0.00 | 54 | 1010.8 | |
| 20260503230037 | 15 | 0.0 | 0.0 | 0.00 | 0.00 | 0.00 | 38 | 1010.4 | |
| 20260503224540 | 16 | 0.0 | 0.0 | 0.00 | 0.00 | 0.00 | 38 | 1010.4 | |
| 20260503223035 | 16 | 0.0 | 0.0 | 0.00 | 0.00 | 0.00 | 38 | 1010.5 | |
| 20260503221542 | 16 | 0.0 | 0.0 | 0.00 | 0.00 | 0.00 | 38 | 1010.5 | |
| 20260503220034 | 16 | 0.0 | 0.0 | 0.00 | 0.00 | 0.00 | 36 | 1010.5 | |
| 20260503214534 | 16 | 0.0 | 0.0 | 0.00 | 0.00 | 0.00 | 37 | 1010.5 | |
| 20260503213034 | 16 | 0.0 | 0.0 | 0.00 | 0.00 | 0.00 | 35 | 1010.7 | |
| 20260503211530 | 16 | 0.0 | 0.0 | 0.00 | 0.00 | 0.00 | 35 | 1010.7 | |
| 20260503210043 | 16 | 0.0 | 0.0 | 0.00 | 0.00 | 0.00 | 36 | 1010.8 | |
| 20260503204528 | 16 | 0.0 | 0.0 | 0.00 | 0.00 | 0.00 | 35 | 1010.9 | |
| 20260503203029 | 17 | 0.0 | 0.0 | 0.00 | 0.00 | 0.00 | 34 | 1011.0 | |
| 20260503201533 | 17 | 0.0 | 0.0 | 0.00 | 0.00 | 0.00 | 35 | 1011.3 | |
| 20260503200026 | 17 | 0.0 | 0.0 | 0.00 | 0.00 | 0.00 | 36 | 1011.3 | |
| 20260503194524 | 17 | 0.0 | 0.0 | 0.00 | 0.00 | 0.00 | 36 | 1011.5 | |
| 20260503193023 | 17 | 0.0 | 0.0 | 0.00 | 0.00 | 0.00 | 35 | 1011.7 | |
| 20260503191521 | 17 | 0.0 | 0.0 | 0.00 | 0.00 | 0.00 | 34 | 1011.9 | |
| 20260503190020 | 17 | 0.0 | 0.0 | 0.00 | 0.00 | 0.00 | 33 | 1012.2 | |
| 20260503184524 | 17 | 0.0 | 0.0 | 0.00 | 0.00 | 0.00 | 34 | 1012.5 | |
| 20260503183022 | 17 | 0.0 | 0.0 | 0.00 | 0.00 | 0.00 | 35 | 1012.6 | |
| 20260503181516 | 17 | 0.0 | 0.0 | 0.00 | 0.00 | 0.00 | 36 | 1012.7 | |
| 20260503180015 | 16 | 0.0 | 0.0 | 0.00 | 0.00 | 0.00 | 37 | 1012.9 | |
| 20260503174512 | 17 | 0.0 | 0.0 | 0.00 | 0.00 | 0.00 | 34 | 1013.0 | |
| 20260503173011 | 16 | 0.0 | 0.0 | 0.00 | 0.00 | 0.00 | 35 | 1013.2 | |
| 20260503171508 | 16 | 0.0 | 0.0 | 0.00 | 0.00 | 0.00 | 36 | 1013.5 |